Year,Month,Day,Hour,Minute,Value (Times are PST for temperature in C)
2014,08,10,00,00,15.70
2014,08,10,00,01,15.70
2014,08,10,00,02,15.70
2014,08,10,00,03,15.70
2014,08,10,00,04,15.70
2014,08,10,00,05,15.70
2014,08,10,00,06,15.70
2014,08,10,00,07,15.70
2014,08,10,00,08,15.70
2014,08,10,00,09,15.70
2014,08,10,00,10,15.70
2014,08,10,00,11,15.70
2014,08,10,00,12,15.70
2014,08,10,00,13,15.70
2014,08,10,00,14,15.70
2014,08,10,00,15,15.70
2014,08,10,00,16,15.70
2014,08,10,00,17,15.70
2014,08,10,00,18,15.70
2014,08,10,00,19,15.70
2014,08,10,00,20,15.70
2014,08,10,00,21,15.60
2014,08,10,00,22,15.60
2014,08,10,00,23,15.60
2014,08,10,00,24,15.50
2014,08,10,00,25,15.50
2014,08,10,00,26,15.50
2014,08,10,00,27,15.40
2014,08,10,00,28,15.40
2014,08,10,00,29,15.40
2014,08,10,00,30,15.40
2014,08,10,00,31,15.30
2014,08,10,00,32,15.30
2014,08,10,00,33,15.30
2014,08,10,00,34,15.30
2014,08,10,00,35,15.20
2014,08,10,00,36,15.20
2014,08,10,00,37,15.20
2014,08,10,00,38,15.20
2014,08,10,00,39,15.20
2014,08,10,00,40,15.20
2014,08,10,00,41,15.20
2014,08,10,00,42,15.10
2014,08,10,00,43,15.10
2014,08,10,00,44,15.10
2014,08,10,00,45,15.10
2014,08,10,00,46,15.10
2014,08,10,00,47,15.10
2014,08,10,00,48,15.00
2014,08,10,00,49,15.00
2014,08,10,00,50,14.90
2014,08,10,00,51,14.90
2014,08,10,00,52,14.80
2014,08,10,00,53,14.80
2014,08,10,00,54,14.80
2014,08,10,00,55,14.70
2014,08,10,00,56,14.70
2014,08,10,00,57,14.70
2014,08,10,00,58,14.70
2014,08,10,00,59,14.70
2014,08,10,01,00,14.70
2014,08,10,01,01,14.70
2014,08,10,01,02,14.70
2014,08,10,01,03,14.70
2014,08,10,01,04,14.60
2014,08,10,01,05,14.60
2014,08,10,01,06,14.60
2014,08,10,01,07,14.60
2014,08,10,01,08,14.60
2014,08,10,01,09,14.60
2014,08,10,01,10,14.60
2014,08,10,01,11,14.60
2014,08,10,01,12,14.50
2014,08,10,01,13,14.50
2014,08,10,01,14,14.50
2014,08,10,01,15,14.50
2014,08,10,01,16,14.50
2014,08,10,01,17,14.40
2014,08,10,01,18,14.40
2014,08,10,01,19,14.40
2014,08,10,01,20,14.40
2014,08,10,01,21,14.40
2014,08,10,01,22,14.40
2014,08,10,01,23,14.40
2014,08,10,01,24,14.40
2014,08,10,01,25,14.40
2014,08,10,01,26,14.40
2014,08,10,01,27,14.40
2014,08,10,01,28,14.40
2014,08,10,01,29,14.30
2014,08,10,01,30,14.30
2014,08,10,01,31,14.30
2014,08,10,01,32,14.30
2014,08,10,01,33,14.30
2014,08,10,01,34,14.30
2014,08,10,01,35,14.20
2014,08,10,01,36,14.20
2014,08,10,01,37,14.20
2014,08,10,01,38,14.10
2014,08,10,01,39,14.10
2014,08,10,01,40,14.10
2014,08,10,01,41,14.10
2014,08,10,01,42,14.10
2014,08,10,01,43,14.10
2014,08,10,01,44,14.00
2014,08,10,01,45,14.00
2014,08,10,01,46,14.00
2014,08,10,01,47,13.90
2014,08,10,01,48,13.90
2014,08,10,01,49,13.90
2014,08,10,01,50,13.90
2014,08,10,01,51,13.90
2014,08,10,01,52,13.80
2014,08,10,01,53,13.80
2014,08,10,01,54,13.80
2014,08,10,01,55,13.80
2014,08,10,01,56,13.80
2014,08,10,01,57,13.80
2014,08,10,01,58,13.80
2014,08,10,01,59,13.80
2014,08,10,02,00,13.80
2014,08,10,02,01,13.80
2014,08,10,02,02,13.80
2014,08,10,02,03,13.80
2014,08,10,02,04,13.80
2014,08,10,02,05,13.80
2014,08,10,02,06,13.80
2014,08,10,02,07,13.80
2014,08,10,02,08,13.80
2014,08,10,02,09,13.80
2014,08,10,02,10,13.80
2014,08,10,02,11,13.70
2014,08,10,02,12,13.70
2014,08,10,02,13,13.70
2014,08,10,02,14,13.70
2014,08,10,02,15,13.70
2014,08,10,02,16,13.70
2014,08,10,02,17,13.70
2014,08,10,02,18,13.70
2014,08,10,02,19,13.70
2014,08,10,02,20,13.70
2014,08,10,02,21,13.60
2014,08,10,02,22,13.60
2014,08,10,02,23,13.60
2014,08,10,02,24,13.60
2014,08,10,02,25,13.60
2014,08,10,02,26,13.60
2014,08,10,02,27,13.60
2014,08,10,02,28,13.60
2014,08,10,02,29,13.60
2014,08,10,02,30,13.50
2014,08,10,02,31,13.50
2014,08,10,02,32,13.50
2014,08,10,02,33,13.40
2014,08,10,02,34,13.40
2014,08,10,02,35,13.40
2014,08,10,02,36,13.30
2014,08,10,02,37,13.30
2014,08,10,02,38,13.30
2014,08,10,02,39,13.30
2014,08,10,02,40,13.30
2014,08,10,02,41,13.30
2014,08,10,02,42,13.30
2014,08,10,02,43,13.30
2014,08,10,02,44,13.30
2014,08,10,02,45,13.30
2014,08,10,02,46,13.30
2014,08,10,02,47,13.30
2014,08,10,02,48,13.30
2014,08,10,02,49,13.30
2014,08,10,02,50,13.30
2014,08,10,02,51,13.30
2014,08,10,02,52,13.30
2014,08,10,02,53,13.30
2014,08,10,02,54,13.30
2014,08,10,02,55,13.30
2014,08,10,02,56,13.30
2014,08,10,02,57,13.30
2014,08,10,02,58,13.30
2014,08,10,02,59,13.30
2014,08,10,03,00,13.30
2014,08,10,03,01,13.30
2014,08,10,03,02,13.30
2014,08,10,03,03,13.20
2014,08,10,03,04,13.20
2014,08,10,03,05,13.20
2014,08,10,03,06,13.20
2014,08,10,03,07,13.20
2014,08,10,03,08,13.30
2014,08,10,03,09,13.30
2014,08,10,03,10,13.30
2014,08,10,03,11,13.30
2014,08,10,03,12,13.30
2014,08,10,03,13,13.30
2014,08,10,03,14,13.30
2014,08,10,03,15,13.30
2014,08,10,03,16,13.30
2014,08,10,03,17,13.30
2014,08,10,03,18,13.30
2014,08,10,03,19,13.30
2014,08,10,03,20,13.20
2014,08,10,03,21,13.20
2014,08,10,03,22,13.20
2014,08,10,03,23,13.20
2014,08,10,03,24,13.20
2014,08,10,03,25,13.20
2014,08,10,03,26,13.20
2014,08,10,03,27,13.20
2014,08,10,03,28,13.10
2014,08,10,03,29,13.10
2014,08,10,03,30,13.10
2014,08,10,03,31,13.10
2014,08,10,03,32,13.10
2014,08,10,03,33,13.10
2014,08,10,03,34,13.10
2014,08,10,03,35,13.10
2014,08,10,03,36,13.10
2014,08,10,03,37,13.10
2014,08,10,03,38,13.10
2014,08,10,03,39,13.10
2014,08,10,03,40,13.10
2014,08,10,03,41,13.00
2014,08,10,03,42,13.00
2014,08,10,03,43,13.00
2014,08,10,03,44,13.00
2014,08,10,03,45,13.00
2014,08,10,03,46,13.00
2014,08,10,03,47,13.00
2014,08,10,03,48,12.90
2014,08,10,03,49,12.90
2014,08,10,03,50,12.90
2014,08,10,03,51,12.90
2014,08,10,03,52,12.90
2014,08,10,03,53,12.90
2014,08,10,03,54,12.90
2014,08,10,03,55,12.90
2014,08,10,03,56,12.80
2014,08,10,03,57,12.80
2014,08,10,03,58,12.80
2014,08,10,03,59,12.80
2014,08,10,04,00,12.80
2014,08,10,04,01,12.80
2014,08,10,04,02,12.80
2014,08,10,04,03,12.80
2014,08,10,04,04,12.80
2014,08,10,04,05,12.70
2014,08,10,04,06,12.70
2014,08,10,04,07,12.70
2014,08,10,04,08,12.70
2014,08,10,04,09,12.70
2014,08,10,04,10,12.60
2014,08,10,04,11,12.60
2014,08,10,04,12,12.60
2014,08,10,04,13,12.60
2014,08,10,04,14,12.60
2014,08,10,04,15,12.60
2014,08,10,04,16,12.60
2014,08,10,04,17,12.60
2014,08,10,04,18,12.60
2014,08,10,04,19,12.60
2014,08,10,04,20,12.50
2014,08,10,04,21,12.50
2014,08,10,04,22,12.50
2014,08,10,04,23,12.50
2014,08,10,04,24,12.50
2014,08,10,04,25,12.50
2014,08,10,04,26,12.50
2014,08,10,04,27,12.50
2014,08,10,04,28,12.40
2014,08,10,04,29,12.40
2014,08,10,04,30,12.40
2014,08,10,04,31,12.40
2014,08,10,04,32,12.40
2014,08,10,04,33,12.40
2014,08,10,04,34,12.40
2014,08,10,04,35,12.40
2014,08,10,04,36,12.40
2014,08,10,04,37,12.30
2014,08,10,04,38,12.30
2014,08,10,04,39,12.30
2014,08,10,04,40,12.30
2014,08,10,04,41,12.30
2014,08,10,04,42,12.30
2014,08,10,04,43,12.30
2014,08,10,04,44,12.30
2014,08,10,04,45,12.30
2014,08,10,04,46,12.30
2014,08,10,04,47,12.30
2014,08,10,04,48,12.30
2014,08,10,04,49,12.30
2014,08,10,04,50,12.30
2014,08,10,04,51,12.30
2014,08,10,04,52,12.30
2014,08,10,04,53,12.30
2014,08,10,04,54,12.30
2014,08,10,04,55,12.30
2014,08,10,04,56,12.30
2014,08,10,04,57,12.30
2014,08,10,04,58,12.30
2014,08,10,04,59,12.30
2014,08,10,05,00,12.30
2014,08,10,05,01,12.20
2014,08,10,05,02,12.20
2014,08,10,05,03,12.20
2014,08,10,05,04,12.20
2014,08,10,05,05,12.20
2014,08,10,05,06,12.30
2014,08,10,05,07,12.30
2014,08,10,05,08,12.30
2014,08,10,05,09,12.30
2014,08,10,05,10,12.30
2014,08,10,05,11,12.30
2014,08,10,05,12,12.30
2014,08,10,05,13,12.40
2014,08,10,05,14,12.40
2014,08,10,05,15,12.40
2014,08,10,05,16,12.40
2014,08,10,05,17,12.40
2014,08,10,05,18,12.40
2014,08,10,05,19,12.40
2014,08,10,05,20,12.30
2014,08,10,05,21,12.30
2014,08,10,05,22,12.30
2014,08,10,05,23,12.30
2014,08,10,05,24,12.30
2014,08,10,05,25,12.30
2014,08,10,05,26,12.30
2014,08,10,05,27,12.30
2014,08,10,05,28,12.20
2014,08,10,05,29,12.20
2014,08,10,05,30,12.20
2014,08,10,05,31,12.20
2014,08,10,05,32,12.10
2014,08,10,05,33,12.10
2014,08,10,05,34,12.10
2014,08,10,05,35,12.10
2014,08,10,05,36,12.10
2014,08,10,05,37,12.10
2014,08,10,05,38,12.10
2014,08,10,05,39,12.10
2014,08,10,05,40,12.10
2014,08,10,05,41,12.10
2014,08,10,05,42,12.20
2014,08,10,05,43,12.20
2014,08,10,05,44,12.20
2014,08,10,05,45,12.20
2014,08,10,05,46,12.20
2014,08,10,05,47,12.20
2014,08,10,05,48,12.20
2014,08,10,05,49,12.20
2014,08,10,05,50,12.20
2014,08,10,05,51,12.20
2014,08,10,05,52,12.20
2014,08,10,05,53,12.10
2014,08,10,05,54,12.10
2014,08,10,05,55,12.10
2014,08,10,05,56,12.10
2014,08,10,05,57,12.10
2014,08,10,05,58,12.00
2014,08,10,05,59,12.00
2014,08,10,06,00,11.90
2014,08,10,06,01,11.90
2014,08,10,06,02,11.90
2014,08,10,06,03,11.90
2014,08,10,06,04,11.90
2014,08,10,06,05,11.80
2014,08,10,06,06,11.80
2014,08,10,06,07,11.80
2014,08,10,06,08,11.80
2014,08,10,06,09,11.80
2014,08,10,06,10,11.80
2014,08,10,06,11,11.80
2014,08,10,06,12,11.80
2014,08,10,06,13,11.80
2014,08,10,06,14,11.80
2014,08,10,06,15,11.80
2014,08,10,06,16,11.70
2014,08,10,06,17,11.70
2014,08,10,06,18,11.70
2014,08,10,06,19,11.70
2014,08,10,06,20,11.70
2014,08,10,06,21,11.70
2014,08,10,06,22,11.70
2014,08,10,06,23,11.70
2014,08,10,06,24,11.70
2014,08,10,06,25,11.70
2014,08,10,06,26,11.70
2014,08,10,06,27,11.80
2014,08,10,06,28,11.80
2014,08,10,06,29,11.90
2014,08,10,06,30,11.90
2014,08,10,06,31,12.00
2014,08,10,06,32,12.00
2014,08,10,06,33,12.10
2014,08,10,06,34,12.10
2014,08,10,06,35,12.20
2014,08,10,06,36,12.20
2014,08,10,06,37,12.30
2014,08,10,06,38,12.30
2014,08,10,06,39,12.30
2014,08,10,06,40,12.30
2014,08,10,06,41,12.40
2014,08,10,06,42,12.40
2014,08,10,06,43,12.40
2014,08,10,06,44,12.50
2014,08,10,06,45,12.50
2014,08,10,06,46,12.50
2014,08,10,06,47,12.60
2014,08,10,06,48,12.60
2014,08,10,06,49,12.60
2014,08,10,06,50,12.60
2014,08,10,06,51,12.70
2014,08,10,06,52,12.70
2014,08,10,06,53,12.70
2014,08,10,06,54,12.70
2014,08,10,06,55,12.70
2014,08,10,06,56,12.70
2014,08,10,06,57,12.80
2014,08,10,06,58,12.80
2014,08,10,06,59,12.80
2014,08,10,07,00,12.80
2014,08,10,07,01,12.90
2014,08,10,07,02,12.90
2014,08,10,07,03,12.90
2014,08,10,07,04,12.90
2014,08,10,07,05,13.00
2014,08,10,07,06,13.00
2014,08,10,07,07,13.10
2014,08,10,07,08,13.10
2014,08,10,07,09,13.10
2014,08,10,07,10,13.20
2014,08,10,07,11,13.20
2014,08,10,07,12,13.30
2014,08,10,07,13,13.30
2014,08,10,07,14,13.40
2014,08,10,07,15,13.40
2014,08,10,07,16,13.50
2014,08,10,07,17,13.50
2014,08,10,07,18,13.60
2014,08,10,07,19,13.70
2014,08,10,07,20,13.70
2014,08,10,07,21,13.80
2014,08,10,07,22,13.80
2014,08,10,07,23,13.90
2014,08,10,07,24,13.90
2014,08,10,07,25,14.00
2014,08,10,07,26,14.10
2014,08,10,07,27,14.10
2014,08,10,07,28,14.20
2014,08,10,07,29,14.20
2014,08,10,07,30,14.30
2014,08,10,07,31,14.30
2014,08,10,07,32,14.40
2014,08,10,07,33,14.40
2014,08,10,07,34,14.50
2014,08,10,07,35,14.60
2014,08,10,07,36,14.70
2014,08,10,07,37,14.80
2014,08,10,07,38,14.90
2014,08,10,07,39,15.00
2014,08,10,07,40,15.20
2014,08,10,07,41,15.30
2014,08,10,07,42,15.40
2014,08,10,07,43,15.60
2014,08,10,07,44,15.70
2014,08,10,07,45,15.80
2014,08,10,07,46,15.90
2014,08,10,07,47,16.00
2014,08,10,07,48,16.10
2014,08,10,07,49,16.20
2014,08,10,07,50,16.30
2014,08,10,07,51,16.40
2014,08,10,07,52,16.40
2014,08,10,07,53,16.40
2014,08,10,07,54,16.40
2014,08,10,07,55,16.40
2014,08,10,07,56,16.40
2014,08,10,07,57,16.40
2014,08,10,07,58,16.40
2014,08,10,07,59,16.40
2014,08,10,08,00,16.40
2014,08,10,08,01,16.40
2014,08,10,08,02,16.40
2014,08,10,08,03,16.40
2014,08,10,08,04,16.40
2014,08,10,08,05,16.40
2014,08,10,08,06,16.40
2014,08,10,08,07,16.40
2014,08,10,08,08,16.40
2014,08,10,08,09,16.40
2014,08,10,08,10,16.50
2014,08,10,08,11,16.50
2014,08,10,08,12,16.50
2014,08,10,08,13,16.60
2014,08,10,08,14,16.60
2014,08,10,08,15,16.70
2014,08,10,08,16,16.70
2014,08,10,08,17,16.80
2014,08,10,08,18,16.80
2014,08,10,08,19,16.90
2014,08,10,08,20,16.90
2014,08,10,08,21,17.00
2014,08,10,08,22,17.10
2014,08,10,08,23,17.10
2014,08,10,08,24,17.20
2014,08,10,08,25,17.20
2014,08,10,08,26,17.30
2014,08,10,08,27,17.40
2014,08,10,08,28,17.50
2014,08,10,08,29,17.50
2014,08,10,08,30,17.60
2014,08,10,08,31,17.70
2014,08,10,08,32,17.80
2014,08,10,08,33,17.80
2014,08,10,08,34,17.90
2014,08,10,08,35,17.90
2014,08,10,08,36,18.00
2014,08,10,08,37,18.10
2014,08,10,08,38,18.10
2014,08,10,08,39,18.20
2014,08,10,08,40,18.20
2014,08,10,08,41,18.30
2014,08,10,08,42,18.40
2014,08,10,08,43,18.50
2014,08,10,08,44,18.60
2014,08,10,08,45,18.70
2014,08,10,08,46,18.80
2014,08,10,08,47,18.90
2014,08,10,08,48,18.90
2014,08,10,08,49,19.00
2014,08,10,08,50,19.10
2014,08,10,08,51,19.20
2014,08,10,08,52,19.30
2014,08,10,08,53,19.40
2014,08,10,08,54,19.50
2014,08,10,08,55,19.60
2014,08,10,08,56,19.70
2014,08,10,08,57,19.80
2014,08,10,08,58,19.90
2014,08,10,08,59,20.10
2014,08,10,09,00,20.20
2014,08,10,09,01,20.30
2014,08,10,09,02,20.50
2014,08,10,09,03,20.60
2014,08,10,09,04,20.70
2014,08,10,09,05,20.80
2014,08,10,09,06,20.90
2014,08,10,09,07,21.00
2014,08,10,09,08,21.10
2014,08,10,09,09,21.20
2014,08,10,09,10,21.20
2014,08,10,09,11,21.30
2014,08,10,09,12,21.40
2014,08,10,09,13,21.50
2014,08,10,09,14,21.60
2014,08,10,09,15,21.70
2014,08,10,09,16,21.80
2014,08,10,09,17,21.80
2014,08,10,09,18,21.90
2014,08,10,09,19,21.90
2014,08,10,09,20,21.90
2014,08,10,09,21,21.90
2014,08,10,09,22,21.90
2014,08,10,09,23,22.00
2014,08,10,09,24,22.00
2014,08,10,09,25,22.10
2014,08,10,09,26,22.10
2014,08,10,09,27,22.10
2014,08,10,09,28,22.10
2014,08,10,09,29,22.10
2014,08,10,09,30,22.20
2014,08,10,09,31,22.20
2014,08,10,09,32,22.20
2014,08,10,09,33,22.10
2014,08,10,09,34,22.10
2014,08,10,09,35,22.10
2014,08,10,09,36,22.00
2014,08,10,09,37,21.90
2014,08,10,09,38,21.90
2014,08,10,09,39,21.90
2014,08,10,09,40,21.90
2014,08,10,09,41,21.90
2014,08,10,09,42,22.00
2014,08,10,09,43,22.00
2014,08,10,09,44,22.00
2014,08,10,09,45,22.00
2014,08,10,09,46,22.00
2014,08,10,09,47,22.00
2014,08,10,09,48,22.00
2014,08,10,09,49,22.10
2014,08,10,09,50,22.10
2014,08,10,09,51,22.10
2014,08,10,09,52,22.20
2014,08,10,09,53,22.20
2014,08,10,09,54,22.30
2014,08,10,09,55,22.30
2014,08,10,09,56,22.30
2014,08,10,09,57,22.30
2014,08,10,09,58,22.30
2014,08,10,09,59,22.30
2014,08,10,10,00,22.30
2014,08,10,10,01,22.30
2014,08,10,10,02,22.30
2014,08,10,10,03,22.30
2014,08,10,10,04,22.30
2014,08,10,10,05,22.30
2014,08,10,10,06,22.40
2014,08,10,10,07,22.40
2014,08,10,10,08,22.50
2014,08,10,10,09,22.60
2014,08,10,10,10,22.60
2014,08,10,10,11,22.60
2014,08,10,10,12,22.60
2014,08,10,10,13,22.60
2014,08,10,10,14,22.50
2014,08,10,10,15,22.50
2014,08,10,10,16,22.50
2014,08,10,10,17,22.50
2014,08,10,10,18,22.50
2014,08,10,10,19,22.40
2014,08,10,10,20,22.40
2014,08,10,10,21,22.30
2014,08,10,10,22,22.30
2014,08,10,10,23,22.30
2014,08,10,10,24,22.30
2014,08,10,10,25,22.30
2014,08,10,10,26,22.30
2014,08,10,10,27,22.30
2014,08,10,10,28,22.40
2014,08,10,10,29,22.50
2014,08,10,10,30,22.50
2014,08,10,10,31,22.60
2014,08,10,10,32,22.60
2014,08,10,10,33,22.60
2014,08,10,10,34,22.60
2014,08,10,10,35,22.60
2014,08,10,10,36,22.60
2014,08,10,10,37,22.60
2014,08,10,10,38,22.60
2014,08,10,10,39,22.70
2014,08,10,10,40,22.70
2014,08,10,10,41,22.70
2014,08,10,10,42,22.80
2014,08,10,10,43,22.80
2014,08,10,10,44,22.80
2014,08,10,10,45,22.80
2014,08,10,10,46,22.90
2014,08,10,10,47,23.00
2014,08,10,10,48,23.10
2014,08,10,10,49,23.20
2014,08,10,10,50,23.20
2014,08,10,10,51,23.20
2014,08,10,10,52,23.20
2014,08,10,10,53,23.20
2014,08,10,10,54,23.10
2014,08,10,10,55,23.10
2014,08,10,10,56,23.10
2014,08,10,10,57,23.20
2014,08,10,10,58,23.20
2014,08,10,10,59,23.30
2014,08,10,11,00,23.20
2014,08,10,11,01,23.20
2014,08,10,11,02,23.30
2014,08,10,11,03,23.20
2014,08,10,11,04,23.20
2014,08,10,11,05,23.20
2014,08,10,11,06,23.20
2014,08,10,11,07,23.30
2014,08,10,11,08,23.30
2014,08,10,11,09,23.30
2014,08,10,11,10,23.40
2014,08,10,11,11,23.50
2014,08,10,11,12,23.60
2014,08,10,11,13,23.60
2014,08,10,11,14,23.70
2014,08,10,11,15,23.60
2014,08,10,11,16,23.60
2014,08,10,11,17,23.60
2014,08,10,11,18,23.60
2014,08,10,11,19,23.70
2014,08,10,11,20,23.80
2014,08,10,11,21,23.90
2014,08,10,11,22,23.90
2014,08,10,11,23,23.90
2014,08,10,11,24,24.00
2014,08,10,11,25,24.10
2014,08,10,11,26,24.20
2014,08,10,11,27,24.20
2014,08,10,11,28,24.20
2014,08,10,11,29,24.20
2014,08,10,11,30,24.20
2014,08,10,11,31,24.10
2014,08,10,11,32,24.10
2014,08,10,11,33,24.20
2014,08,10,11,34,24.20
2014,08,10,11,35,24.10
2014,08,10,11,36,24.00
2014,08,10,11,37,24.00
2014,08,10,11,38,24.00
2014,08,10,11,39,24.10
2014,08,10,11,40,24.10
2014,08,10,11,41,24.10
2014,08,10,11,42,24.00
2014,08,10,11,43,24.00
2014,08,10,11,44,24.00
2014,08,10,11,45,24.10
2014,08,10,11,46,24.10
2014,08,10,11,47,24.20
2014,08,10,11,48,24.30
2014,08,10,11,49,24.30
2014,08,10,11,50,24.30
2014,08,10,11,51,24.40
2014,08,10,11,52,24.40
2014,08,10,11,53,24.50
2014,08,10,11,54,24.50
2014,08,10,11,55,24.60
2014,08,10,11,56,24.50
2014,08,10,11,57,24.50
2014,08,10,11,58,24.40
2014,08,10,11,59,24.40
2014,08,10,12,00,24.50
2014,08,10,12,01,24.50
2014,08,10,12,02,24.50
2014,08,10,12,03,24.50
2014,08,10,12,04,24.50
2014,08,10,12,05,24.60
2014,08,10,12,06,24.70
2014,08,10,12,07,24.70
2014,08,10,12,08,24.70
2014,08,10,12,09,24.70
2014,08,10,12,10,24.60
2014,08,10,12,11,24.60
2014,08,10,12,12,24.60
2014,08,10,12,13,24.60
2014,08,10,12,14,24.70
2014,08,10,12,15,24.70
2014,08,10,12,16,24.70
2014,08,10,12,17,24.70
2014,08,10,12,18,24.70
2014,08,10,12,19,24.80
2014,08,10,12,20,24.80
2014,08,10,12,21,24.90
2014,08,10,12,22,24.90
2014,08,10,12,23,25.00
2014,08,10,12,24,25.10
2014,08,10,12,25,25.10
2014,08,10,12,26,25.20
2014,08,10,12,27,25.30
2014,08,10,12,28,25.30
2014,08,10,12,29,25.30
2014,08,10,12,30,25.30
2014,08,10,12,31,25.30
2014,08,10,12,32,25.30
2014,08,10,12,33,25.30
2014,08,10,12,34,25.40
2014,08,10,12,35,25.40
2014,08,10,12,36,25.40
2014,08,10,12,37,25.40
2014,08,10,12,38,25.50
2014,08,10,12,39,25.50
2014,08,10,12,40,25.60
2014,08,10,12,41,25.50
2014,08,10,12,42,25.50
2014,08,10,12,43,25.40
2014,08,10,12,44,25.50
2014,08,10,12,45,25.50
2014,08,10,12,46,25.50
2014,08,10,12,47,25.50
2014,08,10,12,48,25.50
2014,08,10,12,49,25.40
2014,08,10,12,50,25.40
2014,08,10,12,51,25.40
2014,08,10,12,52,25.40
2014,08,10,12,53,25.40
2014,08,10,12,54,25.40
2014,08,10,12,55,25.50
2014,08,10,12,56,25.50
2014,08,10,12,57,25.60
2014,08,10,12,58,25.70
2014,08,10,12,59,25.80
2014,08,10,13,00,25.90
2014,08,10,13,01,26.00
2014,08,10,13,02,26.10
2014,08,10,13,03,26.10
2014,08,10,13,04,26.10
2014,08,10,13,05,26.00
2014,08,10,13,06,25.90
2014,08,10,13,07,25.90
2014,08,10,13,08,25.90
2014,08,10,13,09,25.90
2014,08,10,13,10,26.00
2014,08,10,13,11,25.90
2014,08,10,13,12,25.90
2014,08,10,13,13,25.90
2014,08,10,13,14,25.90
2014,08,10,13,15,26.00
2014,08,10,13,16,26.10
2014,08,10,13,17,26.10
2014,08,10,13,18,26.10
2014,08,10,13,19,26.10
2014,08,10,13,20,26.20
2014,08,10,13,21,26.30
2014,08,10,13,22,26.30
2014,08,10,13,23,26.30
2014,08,10,13,24,26.30
2014,08,10,13,25,26.30
2014,08,10,13,26,26.20
2014,08,10,13,27,26.20
2014,08,10,13,28,26.10
2014,08,10,13,29,26.20
2014,08,10,13,30,26.20
2014,08,10,13,31,26.20
2014,08,10,13,32,26.30
2014,08,10,13,33,26.30
2014,08,10,13,34,26.30
2014,08,10,13,35,26.40
2014,08,10,13,36,26.40
2014,08,10,13,37,26.40
2014,08,10,13,38,26.40
2014,08,10,13,39,26.40
2014,08,10,13,40,26.40
2014,08,10,13,41,26.40
2014,08,10,13,42,26.50
2014,08,10,13,43,26.50
2014,08,10,13,44,26.50
2014,08,10,13,45,26.50
2014,08,10,13,46,26.40
2014,08,10,13,47,26.30
2014,08,10,13,48,26.30
2014,08,10,13,49,26.30
2014,08,10,13,50,26.30
2014,08,10,13,51,26.30
2014,08,10,13,52,26.30
2014,08,10,13,53,26.30
2014,08,10,13,54,26.30
2014,08,10,13,55,26.20
2014,08,10,13,56,26.30
2014,08,10,13,57,26.30
2014,08,10,13,58,26.30
2014,08,10,13,59,26.30
2014,08,10,14,00,26.30
2014,08,10,14,01,26.30
2014,08,10,14,02,26.40
2014,08,10,14,03,26.40
2014,08,10,14,04,26.50
2014,08,10,14,05,26.50
2014,08,10,14,06,26.60
2014,08,10,14,07,26.70
2014,08,10,14,08,26.70
2014,08,10,14,09,26.80
2014,08,10,14,10,26.80
2014,08,10,14,11,26.90
2014,08,10,14,12,26.90
2014,08,10,14,13,26.80
2014,08,10,14,14,26.80
2014,08,10,14,15,26.80
2014,08,10,14,16,26.80
2014,08,10,14,17,26.70
2014,08,10,14,18,26.70
2014,08,10,14,19,26.60
2014,08,10,14,20,26.60
2014,08,10,14,21,26.60
2014,08,10,14,22,26.60
2014,08,10,14,23,26.60
2014,08,10,14,24,26.60
2014,08,10,14,25,26.60
2014,08,10,14,26,26.60
2014,08,10,14,27,26.60
2014,08,10,14,28,26.60
2014,08,10,14,29,26.70
2014,08,10,14,30,26.70
2014,08,10,14,31,26.70
2014,08,10,14,32,26.70
2014,08,10,14,33,26.70
2014,08,10,14,34,26.60
2014,08,10,14,35,26.60
2014,08,10,14,36,26.60
2014,08,10,14,37,26.70
2014,08,10,14,38,26.80
2014,08,10,14,39,26.80
2014,08,10,14,40,26.90
2014,08,10,14,41,26.80
2014,08,10,14,42,26.80
2014,08,10,14,43,26.70
2014,08,10,14,44,26.70
2014,08,10,14,45,26.70
2014,08,10,14,46,26.70
2014,08,10,14,47,26.80
2014,08,10,14,48,26.80
2014,08,10,14,49,26.80
2014,08,10,14,50,26.80
2014,08,10,14,51,26.90
2014,08,10,14,52,26.90
2014,08,10,14,53,26.90
2014,08,10,14,54,26.90
2014,08,10,14,55,26.90
2014,08,10,14,56,27.00
2014,08,10,14,57,27.10
2014,08,10,14,58,27.20
2014,08,10,14,59,27.20
2014,08,10,15,00,27.20
2014,08,10,15,01,27.30
2014,08,10,15,02,27.30
2014,08,10,15,03,27.30
2014,08,10,15,04,27.20
2014,08,10,15,05,27.30
2014,08,10,15,06,27.30
2014,08,10,15,07,27.40
2014,08,10,15,08,27.50
2014,08,10,15,09,27.50
2014,08,10,15,10,27.60
2014,08,10,15,11,27.60
2014,08,10,15,12,27.60
2014,08,10,15,13,27.60
2014,08,10,15,14,27.50
2014,08,10,15,15,27.40
2014,08,10,15,16,27.30
2014,08,10,15,17,27.30
2014,08,10,15,18,27.30
2014,08,10,15,19,27.30
2014,08,10,15,20,27.30
2014,08,10,15,21,27.30
2014,08,10,15,22,27.30
2014,08,10,15,23,27.30
2014,08,10,15,24,27.30
2014,08,10,15,25,27.40
2014,08,10,15,26,27.50
2014,08,10,15,27,27.50
2014,08,10,15,28,27.60
2014,08,10,15,29,27.60
2014,08,10,15,30,27.70
2014,08,10,15,31,27.70
2014,08,10,15,32,27.70
2014,08,10,15,33,27.60
2014,08,10,15,34,27.40
2014,08,10,15,35,27.30
2014,08,10,15,36,27.30
2014,08,10,15,37,27.20
2014,08,10,15,38,27.20
2014,08,10,15,39,27.20
2014,08,10,15,40,27.20
2014,08,10,15,41,27.20
2014,08,10,15,42,27.30
2014,08,10,15,43,27.50
2014,08,10,15,44,27.60
2014,08,10,15,45,27.70
2014,08,10,15,46,27.80
2014,08,10,15,47,27.80
2014,08,10,15,48,27.80
2014,08,10,15,49,27.80
2014,08,10,15,50,27.80
2014,08,10,15,51,27.80
2014,08,10,15,52,27.80
2014,08,10,15,53,27.80
2014,08,10,15,54,27.80
2014,08,10,15,55,27.70
2014,08,10,15,56,27.70
2014,08,10,15,57,27.70
2014,08,10,15,58,27.70
2014,08,10,15,59,27.70
2014,08,10,16,00,27.60
2014,08,10,16,01,27.60
2014,08,10,16,02,27.60
2014,08,10,16,03,27.50
2014,08,10,16,04,27.50
2014,08,10,16,05,27.40
2014,08,10,16,06,27.50
2014,08,10,16,07,27.50
2014,08,10,16,08,27.60
2014,08,10,16,09,27.60
2014,08,10,16,10,27.70
2014,08,10,16,11,27.70
2014,08,10,16,12,27.70
2014,08,10,16,13,27.70
2014,08,10,16,14,27.70
2014,08,10,16,15,27.70
2014,08,10,16,16,27.70
2014,08,10,16,17,27.60
2014,08,10,16,18,27.60
2014,08,10,16,19,27.50
2014,08,10,16,20,27.40
2014,08,10,16,21,27.30
2014,08,10,16,22,27.30
2014,08,10,16,23,27.30
2014,08,10,16,24,27.30
2014,08,10,16,25,27.40
2014,08,10,16,26,27.40
2014,08,10,16,27,27.40
2014,08,10,16,28,27.40
2014,08,10,16,29,27.40
2014,08,10,16,30,27.40
2014,08,10,16,31,27.40
2014,08,10,16,32,27.40
2014,08,10,16,33,27.50
2014,08,10,16,34,27.50
2014,08,10,16,35,27.70
2014,08,10,16,36,27.80
2014,08,10,16,37,27.90
2014,08,10,16,38,27.90
2014,08,10,16,39,28.00
2014,08,10,16,40,27.90
2014,08,10,16,41,27.90
2014,08,10,16,42,27.80
2014,08,10,16,43,27.70
2014,08,10,16,44,27.70
2014,08,10,16,45,27.70
2014,08,10,16,46,27.70
2014,08,10,16,47,27.70
2014,08,10,16,48,27.80
2014,08,10,16,49,27.80
2014,08,10,16,50,27.70
2014,08,10,16,51,27.70
2014,08,10,16,52,27.70
2014,08,10,16,53,27.60
2014,08,10,16,54,27.60
2014,08,10,16,55,27.60
2014,08,10,16,56,27.50
2014,08,10,16,57,27.50
2014,08,10,16,58,27.40
2014,08,10,16,59,27.40
2014,08,10,17,00,27.40
2014,08,10,17,01,27.40
2014,08,10,17,02,27.50
2014,08,10,17,03,27.50
2014,08,10,17,04,27.50
2014,08,10,17,05,27.50
2014,08,10,17,06,27.60
2014,08,10,17,07,27.60
2014,08,10,17,08,27.60
2014,08,10,17,09,27.70
2014,08,10,17,10,27.70
2014,08,10,17,11,27.80
2014,08,10,17,12,27.90
2014,08,10,17,13,27.90
2014,08,10,17,14,28.00
2014,08,10,17,15,28.00
2014,08,10,17,16,27.90
2014,08,10,17,17,27.90
2014,08,10,17,18,27.90
2014,08,10,17,19,27.80